Location: Bryzozowice
(50.3667°N, 18.9667°E)
Time: 17:51:27
(UTC+00:00)

YAOGAN 1 - Pass Details

Date: 24 January 2020
Orbit: 619 x 621 km, 98.0° (Epoch: 19 February)

Event Time Altitude Azimuth Distance (km) Brightness Sun altitude
Rises 17:37:33 0° 182° (S) 2,886 6.1 -21.2°
Reaches altitude 10° 17:39:48 10° 189° (S) 1,985 5.3 -21.6°
Maximum altitude 17:43:56 43° 262° (W) 874 3.7 -22.2°
Drops below altitude 10° 17:48:05 10° 334° (NNW) 2,000 5.4 -22.9°
Sets 17:50:23 0° 341° (NNW) 2,911 6.2 -23.2°
